Regional Weather Roundup
Issued by NWS Jackson, KY

Home | Current Version | Previous Version | Graphics & Text | Print | Product List | Glossary On
Versions: 1 2 3 4 5 6 7 8 9 10 11 12 13 14 15 16 17 18 19 20 21 22 23 24 25 26 27 28 29 30 31 32 33 34 35 36 37 38 39 40 41 42 43 44 45 46 47 48 49 50
000
ASUS43 KJKL 120405
RWRJKL

EAST KENTUCKY HOURLY WEATHER ROUNDUP
NATIONAL WEATHER SERVICE JACKSON KY
1200 AM EDT SAT JUL 12 2014

NOTE: "FAIR" INDICATES FEW OR NO CLOUDS BELOW 12,000 FEET WITH
NO SIGNIFICANT WEATHER AND/OR OBSTRUCTIONS TO VISIBILITY.

* THESE REPORTS ARE NOT UNDER NWS QUALITY CONTROL AND MAY NOT
  REPORT WEATHER SUCH AS PRECIPITATION AND FOG.

KYZ079-080-083-085-087-088-110-112-115-119-120-120500
...EASTERN KENTUCKY...

CITY           SKY/WX    TMP DP  RH WIND       PRES   REMARKS
JACKSON        CLEAR     76  59  55 SE3       30.22S
LONDON         CLEAR     70  62  76 CALM      30.22S
SOMERSET*      CLEAR     68  61  77 CALM      30.21S
MONTICELLO*    CLEAR     64  62  93 CALM      30.22R
MIDDLESBORO*   CLEAR     67  63  88 CALM      30.23S
HARLAN APT*    CLEAR     68  64  88 MISG      30.24S
BIG SANDY*     PTCLDY    71  65  81 CALM      30.22R
MOREHEAD APT*  MOCLDY    73  61  64 CALM      30.22S
$$

KYZ035-036-041-042-044-050-067-078-099-120500
...CENTRAL KENTUCKY...

CITY           SKY/WX    TMP DP  RH WIND       PRES   REMARKS
MT STERLING*   PTCLDY    64  63  94 CALM      30.21S
FLEMING/MASON* PTCLDY    70  63  77 SE3       30.20S
DANVILLE*      CLEAR     68  64  88 CALM      30.21S
RICHMOND*      CLEAR     70  59  68 CALM      30.20S
LEXINGTON      CLEAR     74  61  63 NE7       30.20S
FRANKFORT      CLEAR     70  64  81 CALM      30.18S
$$

KYZ091>093-OHZ055-061-077-WVZ005-015-034-035-042-120500
...SOUTHERN OHIO/WEST VIRGINIA...

CITY           SKY/WX    TMP DP  RH WIND       PRES   REMARKS
COVINGTON      PTCLDY    69  57  65 CALM      30.19R
COLUMBUS       MOCLDY    71  59  65 E3        30.18S
DAYTON         MOCLDY    74  59  59 CALM      30.21R
WILMINGTON     PTCLDY    66  60  81 CALM      30.20R
HUNTINGTON     CLEAR     69  63  81 E3        30.19R
CHARLESTON     CLEAR     69  67  93 CALM      30.20S
PINEVILLE*     CLEAR     65  65  99 MISG      30.30S
BECKLEY        CLEAR     70  60  70 SE6       30.29S
BLUEFIELD      CLEAR     72  61  68 S7        30.32R
$$

VAZ002-007-008-TNZ017-027-036-066-071-120500
...SOUTHWEST VIRGINIA/EAST TENNESSEE...

CITY           SKY/WX    TMP DP  RH WIND       PRES   REMARKS
WISE*          CLEAR     72  59  64 CALM      30.30S
JONESVILLE*      N/A     68  66  94 CALM      30.25R
ABINGDON*      PTCLDY    73  64  71 NE3       30.27R
BRISTOL        CLEAR     68  59  73 N3        30.23R
KNOXVILLE      PTCLDY    75  63  66 SW6       30.19R
OAK RIDGE      CLEAR     72  64  76 CALM      30.21R
CROSSVILLE     CLEAR     67  63  87 CALM      30.26R
NASHVILLE      CLEAR     76  64  66 CALM      30.17R
$$

...KEY TO REMARKS...
VSB - VISIBILITY IN MILES
WCI - WIND CHILL INDEX
HX  - HEAT INDEX

$$


USA.gov is the U.S. government's official web portal to all federal, state and local government web resources and services.